Regional Weather Roundup
Issued by NWS

Home | Current Version | Previous Version | Graphics & Text | Print | Product List | Glossary Off
Versions: 1 2 3 4 5 6 7 8 9 10 11 12 13 14 15 16 17 18 19 20 21 22 23 24 25 26 27 28 29 30 31 32 33 34 35 36 37 38 39 40 41 42 43 44 45 46 47 48 49 50

000
ASUS43 KMPX 301310
RWRMN
WEATHER ROUNDUP FOR MINNESOTA
NATIONAL WEATHER SERVICE TWIN CITIES/CHANHASSEN MN
800 AM CDT TUE AUG 30 2016


NOTE: "FAIR" INDICATES FEW OR NO CLOUDS BELOW 12,000 FEET WITH NO
SIGNIFICANT WEATHER AND/OR OBSTRUCTIONS TO VISIBILITY. N/A MEANS
CURRENT SKY AND/OR WEATHER CONDITIONS ARE NOT AVAILABLE.

MNZ060>063-068>070-301400-
   Twin Cities Metro

CITY           SKY/WX    TMP DP  RH WIND       PRES   REMARKS
TWIN CITIES    CLOUDY    68  64  87 NW7       30.17R
ST PAUL        CLOUDY    68  65  90 NW7       30.17R
CRYSTAL        PTSUNNY   67  63  87 W5        30.15S
BLAINE         PTSUNNY   68  68 100 CALM      30.16S
LAKEVILLE      PTSUNNY   64  64 100 NW7       30.17R
EDEN PRAIRIE   CLOUDY    69  65  86 NW5       30.16R
LAKEVILLE      PTSUNNY   64  64 100 NW7       30.17R
SOUTH ST PAUL  CLOUDY    68  66  93 W5        30.16S
LAKE ELMO      FAIR      66  64  94 NW3       30.17S
$$
MNZ001>005-007-008-013>017-022>024-027-028-301400-
   Northwest Minnesota

CITY           SKY/WX    TMP DP  RH WIND       PRES   REMARKS
BEMIDJI        SUNNY     51  51  99 NW3       30.24S
HALLOCK        SUNNY     50  48  93 CALM      30.25S
ROSEAU         SUNNY     52  46  82 CALM      30.24S
WARROAD        SUNNY     52  46  82 W5        30.24F
THIEF RVR FALL SUNNY     51  50  96 CALM      30.26S
CROOKSTON      SUNNY     54  52  94 CALM      30.26R
FOSSTON        FOG       52  50  93 CALM      30.26S VSB 1
DETROIT LAKES  SUNNY     59  57  94 CALM      30.27R
MOORHEAD       SUNNY     55  52  88 CALM      30.26S
PARK RAPIDS    SUNNY     55  53  93 W3        30.25R
MAHNOMEN       FAIR      53  52  99 CALM      30.26R
$$
MNZ006-009>011-018-025>026-301400-
   North Central Minnesota

CITY           SKY/WX    TMP DP  RH WIND       PRES   REMARKS
BAUDETTE       SUNNY     52  50  93 W6        30.22S
FLAG ISLAND    SUNNY     55  48  76 NW5       30.21F
INTL FALLS     SUNNY     53  52  96 CALM      30.21S
WASKISH        SUNNY     55  55 100 CALM      30.23S
BIG FORK       SUNNY     54  52  94 CALM      30.23S
LONGVILLE      SUNNY     55  54  94 CALM      30.22F
GRAND RAPIDS   SUNNY     57  56  96 NW8       30.24S
CRANE LAKE     SUNNY     54  52  94 CALM      30.22R
ORR            SUNNY     55  52  88 CALM      30.20R
COOK           SUNNY     54  54 100 CALM      30.21S
WALKER         FAIR      53  53  98 CALM      30.24S
$$
MNZ012-019>021-037-301400-
   Northeast Minnesota

CITY           SKY/WX    TMP DP  RH WIND       PRES   REMARKS
DULUTH         MOSUNNY   63  60  90 NW9       30.18R
ELY            SUNNY     55  55 100 NW3       30.18F
HIBBING        SUNNY     57  55  93 N9        30.20S
EVELETH        SUNNY     60  55  82 N5        30.20S
DULUTH HARBOR  SUNNY     66  59  77 N8        30.17S
TWO HARBORS    SUNNY     64  59  82 CALM      30.15R
SILVER BAY     SUNNY     63  57  82 CALM      30.14R
GRAND MARAIS     N/A     65  56  72 VRB6      30.12R
G MARAIS ARPRT SUNNY     57  52  82 N10       30.15F
$$
MNZ029>031-032-039>041-046>048-054>057-064-301400-
   West Central Minnesota

CITY           SKY/WX    TMP DP  RH WIND       PRES   REMARKS
FERGUS FALLS   SUNNY     61  57  88 CALM      30.26R
WHEATON        SUNNY     57  55  94 CALM      30.26R
MORRIS         MOSUNNY   63  61  94 NW5       30.22S
ALEXANDRIA     CLOUDY    62  55  77 N8        30.25R
ELBOW LAKE     FAIR      60  58  94 NE3       30.24R
WADENA         SUNNY     57  54  88 N3        30.24R
GLENWOOD       MOSUNNY   61  57  88 N6        30.23S
APPLETON       SUNNY     63  61  94 CALM      30.21S
BENSON         CLOUDY    61  57  88 CALM      30.22R
ORTONVILLE     MOSUNNY   63  59  88 CALM      30.23S
MADISON        MOSUNNY   63  61  94 NW5       30.22R
WILLMAR        CLOUDY    70  66  88 N3        30.22R
$$
MNZ033>034-036-042>043-049>051-058-059-301400-
   Central Minnesota

CITY           SKY/WX    TMP DP  RH WIND       PRES   REMARKS
ST CLOUD       CLOUDY    63  62  97 N8        30.20R
SAUK CENTRE    FAIR      62  57  84 N6        30.22S
PAYNESVILLE    PTSUNNY   64  64 100 N3        30.21R
AITKIN           N/A     61  54  77 N6        30.20S
PINE RIVER     SUNNY     57  55  94 NW3       30.26R
BRAINERD       SUNNY     61  56  83 N8        30.22S
STAPLES        MOSUNNY   55  55 100 N5        30.24R
LONG PRAIRIE   FAIR      59  55  88 NW6       30.23R
LITTLE FALLS   MOSUNNY   61  55  82 N5        30.21S
LITCHFIELD     CLOUDY    70  68  94 NW5       30.20R
BUFFALO        CLOUDY    66  64  91 NW5       30.19R
MAPLE LAKE     PTSUNNY   67  66  97 NW7       30.19S
HUTCHINSON     PTSUNNY   68  67  98 NW6       30.20R
$$
MNZ037-044-045-052-053-301400-
   East Central Minnesota

CITY           SKY/WX    TMP DP  RH WIND       PRES   REMARKS
PRINCETON        N/A     64  63  94 NW3       30.19R
MORA           PTSUNNY   61  59  94 N5        30.20R
CAMBRIDGE      CLOUDY    66  61  82 CALM      30.17R
RUSH CITY      CLOUDY    64  62  94 N6        30.17S
MOOSE LAKE     CLOUDY    61  57  88 N5        30.17S
HINCKLEY       FAIR      64  63  94 N7        30.17R
CLOQUET        SUNNY     61  57  88 NW7       30.19S
MCGREGOR       SUNNY     59  55  88 NW6       30.21S
$$
MNZ071>073-080-081-089-090-097-098-301400-
   Southwest Minnesota

CITY           SKY/WX    TMP DP  RH WIND       PRES   REMARKS
MONTEVIDEO     CLOUDY    64  64 100 N3        30.23R
GRANITE FALLS  CLOUDY    68  67  96 NW6       30.22S
CANBY          CLOUDY    63  61  93 W3        30.24R
MARSHALL       CLOUDY    66  64  93 NW8       30.21S
REDWOOD FALLS  CLOUDY    67  65  93 NW5       30.19S
OLIVIA         CLOUDY    68  64  88 CALM      30.19S
PIPESTONE        N/A     68  64  88 SE1       30.21F
WINDOM         CLOUDY    66  63  88 SW3       30.17F
WORTHINGTON    PTSUNNY   66  65  96 SW5       30.20F
JACKSON        MOSUNNY   64  63  94 W3        30.18F
TRACY          CLOUDY    67  65  94 W5        30.20S
SLAYTON        CLOUDY    64  63  94 CALM      30.21S
$$
MNZ065>067-074>077-082>085-091>093-301400-
   South Central Minnesota

CITY           SKY/WX    TMP DP  RH WIND       PRES   REMARKS
NEW ULM        CLOUDY    64  64 100 N6        30.19R
ST JAMES       CLOUDY    66  64  94 N5        30.17R
FAIRMONT       CLOUDY    66  65  96 SW6       30.16R
GLENCOE        PTSUNNY   66  67 100 W5        30.18R
FARIBAULT      MOSUNNY   66  64  94 CALM      30.18R
OWATONNA       CLOUDY    66  63  88 CALM      30.17R
WASECA         CLOUDY    64  63  94 N3        30.18R
ALBERT LEA     CLOUDY    70  64  83 CALM      30.13S
$$
MNZ078>079-086>088-094>096-301400-
   Southeast Minnesota

CITY           SKY/WX    TMP DP  RH WIND       PRES   REMARKS
ROCHESTER      CLOUDY    68  65  90 CALM      30.16R
RED WING       CLOUDY    68  64  88 CALM      30.15R
STANTON        CLOUDY    68  64  88 N5        30.16R
DODGE CENTER   CLOUDY    66  64  94 N5        30.18R
WINONA         PTSUNNY   70  64  83 N5        30.16R
AUSTIN         MOSUNNY   66  64  94 CALM      30.13F
PRESTON        PTSUNNY   67  66  96 CALM      30.16R FOG
$$
ABBREVIATIONS USED IN REMARKS
   TC - TEMPERATURES IN CELSIUS
  WCI - WIND CHILL INDEX
   HX - HEAT INDEX
  VSB - VISIBILITY
$$




USA.gov is the U.S. government's official web portal to all federal, state and local government web resources and services.